User: anonymous   Login
Location: Unspecified
(0.0000°N, 0.0000°E)
Time: 16:02:47
(UTC+01:00)
Language:

DELTA 2 R/B (1) - Orbit

View from above orbital plane
View from above orbital plane
View from above satellite
View from above satellite

Ground track
Ground track

The orbit data is extracted from the following two-line orbital elements,

1 27665U 03005C   14327.13402984 -.00000066  00000-0  74146-5 0  1691
2 27665 039.5739 201.0725 0009533 290.3516 203.7581 14.28255352616913
Epoch (UTC): 23 November 2014 03:13:00
Eccentricity: 0.0009533
inclination: 39.5739°
perigee height: 791 km
apogee height: 804 km
right ascension of ascending node: 201.0725°
argument of perigee: 290.3516°
revolutions per day: 14.28255352
mean anomaly at epoch: 203.7581°
orbit number at epoch: 61691

The dashed part of the orbit path shows where the satellite is in the earth's shadow,  

DLR